Temp
63 63 63 64 64 62 63 64 65 65 65 65 65 65 64 64 64 67 65 75 76 73 73 79 78 79 80 77 77 78 70 67 71 72 74 78 76 79 82 79 80 81 81 83 81
62 63 63 63 63 63 62 62 63 65 65 65 65 64 64 64 64 65 75 75 75 73 76 74 73 75 74 74 74 72 68 71 81 80 77 77 78 77 76 77 76 76 77 82 79
62 62 62 62 62 61 61 61 61 63 65 64 65 64 64 67 62 68 76 75 74 74 80 80 79 76 72 74 73 73 67 78 76 80 80 77 77 81 77 73 79 77 75 75 71
62 62 62 62 61 61 61 61 60 61 64 64 64 64 64 68 54 73 73 74 74 77 77 76 75 70 69 66 75 67 74 76 77 74 76 75 79 75 78 76 81 84 81 75 67
61 61 61 61 60 60 60 61 60 60 62 64 64 64 65 60 62 77 71 74 75 75 72 72 70 71 68 71 71 67 73 73 74 72 75 77 74 76 75 78 79 80 81 76 72
61 60 60 60 60 59 59 60 60 59 60 63 63 63 62 54 74 75 76 74 74 73 73 74 73 77 73 72 69 73 72 72 71 71 72 71 72 71 76 76 76 76 78 78 76
61 60 59 59 59 59 59 59 59 60 58 62 63 65 61 62 75 75 73 73 75 74 72 76 78 73 75 69 74 72 65 67 69 71 69 74 66 68 75 74 74 74 77 78 79
60 60 59 58 58 58 57 58 58 59 58 61 63 65 56 74 77 71 74 71 74 77 75 78 76 74 72 73 70 66 68 59 69 69 68 69 64 73 72 73 74 75 76 75 77
58 58 58 58 58 57 57 56 57 58 58 61 61 61 56 66 65 72 74 67 70 72 73 75 74 70 67 63 60 65 57 61 61 69 66 66 67 71 70 72 73 73 74 74 75
58 57 57 58 57 55 56 57 58 57 58 63 66 54 62 60 68 70 73 72 67 67 65 66 66 62 64 62 50 56 59 63 63 63 65 62 66 66 67 70 72 73 73 72 74
57 58 57 58 57 55 55 57 49 48 51 47 55 57 63 69 70 66 70 67 68 64 58 62 55 52 60 64 68 67 63 63 67 66 63 64 65 65 66 67 68 71 71 71 72
57 57 57 57 57 55 55 47 41 43 36 49 51 60 65 67 58 63 71 61 59 53 62 57 51 61 66 65 63 64 62 63 60 61 62 64 64 69 65 67 67 68 69 68 67
56 57 57 56 56 54 51 47 49 47 37 47 50 56 60 63 60 58 65 64 58 55 57 53 58 65 63 61 59 61 60 62 59 58 63 63 59 63 64 63 62 62 63 62 63
56 56 56 56 51 53 50 51 51 48 31 41 43 53 60 62 56 68 68 65 59 55 58 56 64 60 59 57 60 55 64 64 57 55 51 62 52 62 63 59 59 60 61 62 61
55 56 55 55 53 50 52 54 52 44 24 48 47 62 61 56 58 58 68 65 57 57 58 54 54 54 54 58 62 58 63 61 59 57 55 54 51 64 68 59 59 61 61 61 60
55 55 55 56 56 57 56 53 47 31 25 39 48 44 49 54 58 58 58 65 67 59 59 59 59 60 59 63 64 61 58 57 57 54 43 57 54 59 56 62 65 62 60 58 58
55 55 54 58 49 58 56 47 30 22 36 38 40 46 46 48 52 53 51 50 50 44 46 53 52 56 59 54 60 60 55 41 39 37 41 51 52 58 61 61 67 60 58 57 57
55 54 56 57 59 57 51 36 22 33 32 39 37 47 42 50 50 51 49 47 55 56 50 43 38 50 57 58 52 55 56 43 34 38 44 47 44 57 58 56 62 61 58 56 56
55 57 53 57 57 53 40 27 29 36 38 35 35 37 40 48 50 50 49 50 54 58 49 47 46 53 56 57 59 52 49 61 48 47 47 49 54 49 50 51 55 54 53 52 53
52 51 52 57 56 45 33 31 35 42 39 36 28 34 37 43 43 46 48 55 54 60 65 57 46 51 51 56 56 54 61 46 47 34 37 47 50 51 45 47 50 50 50 51 51
50 43 51 57 52 37 29 34 40 46 44 36 35 31 36 43 43 42 49 56 59 58 61 60 56 44 49 48 50 49 50 53 55 51 40 42 48 61 57 51 48 50 51 50 49
46 35 50 53 34 34 31 36 40 43 45 41 39 36 33 36 43 44 48 55 63 61 53 59 56 39 44 50 53 58 55 55 45 44 48 49 50 53 53 55 52 50 50 50 51
39 40 51 49 30 31 38 36 41 38 41 39 38 40 40 35 39 48 51 61 62 59 54 58 50 39 40 47 50 47 54 56 58 57 48 43 50 50 50 53 52 49 49 50 51
38 31 42 42 37 32 31 34 35 44 42 43 41 42 37 34 39 47 49 54 61 60 56 57 53 48 40 46 51 43 50 52 54 46 48 50 56 46 47 49 49 48 49 50 49
37 33 33 30 31 32 32 31 30 30 41 43 38 38 36 33 38 45 49 46 51 57 56 56 47 52 55 57 54 50 49 50 49 52 48 55 55 59 51 50 50 50 49 48 46
34 33 35 32 32 31 33 32 30 32 32 33 32 36 37 32 37 38 46 46 45 50 51 55 37 47 45 55 52 48 51 51 50 53 54 58 58 62 62 56 51 48 47 46 45
44 44 35 33 32 31 31 31 31 35 37 40 37 34 35 39 46 49 52 51 47 43 43 38 36 36 37 48 42 35 48 51 51 54 56 48 54 55 52 51 51 49 48 46 45
MSLP
1014.84 1014.60 1014.33 1014.04 1013.71 1013.65 1013.19 1012.72 1012.54 1012.43 1012.42 1012.18 1012.16 1011.99 1011.75 1012.02 1012.01 1011.81 1010.50 1009.40 1009.61 1009.85 1010.22 1009.96 1010.03 1009.73 1009.56 1009.18 1009.29 1008.67 1006.85 1005.31 1004.84 1004.85 1005.24 1006.59 1006.88 1007.75 1008.11 1008.33 1008.88 1009.55 1009.72 1010.35 1012.20
1014.68 1014.41 1014.14 1013.87 1013.62 1013.36 1013.19 1012.84 1012.46 1012.18 1012.13 1012.05 1011.98 1011.95 1011.67 1011.54 1011.75 1010.41 1008.96 1009.11 1009.69 1009.71 1009.82 1009.30 1009.34 1009.31 1008.88 1008.69 1008.82 1008.13 1006.67 1005.21 1004.83 1005.11 1005.38 1006.59 1006.78 1007.64 1008.16 1008.39 1009.05 1009.98 1011.10 1011.36 1012.61
1014.57 1014.30 1014.03 1013.72 1013.54 1013.41 1013.17 1012.80 1012.57 1012.17 1011.88 1011.86 1011.94 1011.94 1011.73 1011.09 1010.95 1007.99 1007.52 1008.59 1009.35 1009.71 1009.20 1008.90 1008.84 1008.83 1008.18 1008.20 1008.06 1007.61 1006.54 1005.61 1005.89 1006.04 1006.19 1006.76 1007.05 1007.58 1007.74 1008.18 1008.37 1009.28 1010.84 1011.99 1013.08
1014.24 1014.08 1013.88 1013.69 1013.45 1013.30 1013.09 1012.70 1012.55 1012.29 1011.75 1011.70 1011.81 1011.89 1011.46 1010.82 1009.43 1007.56 1007.73 1007.93 1008.68 1009.41 1009.09 1008.72 1008.57 1008.32 1007.60 1007.55 1007.34 1007.37 1006.89 1006.55 1006.47 1007.21 1006.97 1007.04 1007.43 1007.87 1007.93 1008.48 1008.88 1008.98 1010.16 1011.86 1013.24
1014.03 1013.97 1013.81 1013.68 1013.41 1013.16 1013.04 1012.63 1012.38 1012.12 1011.67 1011.46 1011.57 1011.77 1011.37 1010.17 1008.11 1007.56 1007.76 1008.25 1008.29 1009.04 1008.74 1008.40 1008.14 1007.66 1006.83 1006.93 1007.29 1007.21 1006.78 1007.38 1007.48 1007.80 1007.57 1007.66 1007.76 1007.81 1008.33 1008.98 1009.55 1009.82 1010.15 1011.40 1012.58
1013.82 1014.03 1013.75 1013.59 1013.26 1013.09 1012.78 1012.47 1012.08 1011.92 1011.70 1011.28 1011.34 1011.43 1010.92 1008.96 1007.72 1007.50 1007.84 1008.33 1007.91 1008.39 1008.42 1008.28 1007.63 1007.27 1006.81 1006.44 1006.96 1006.71 1007.08 1007.53 1007.99 1008.08 1008.35 1008.19 1008.41 1008.75 1008.57 1009.47 1009.70 1010.11 1010.27 1010.91 1011.72
1013.67 1013.75 1013.62 1013.33 1013.17 1012.94 1012.69 1012.22 1011.87 1011.84 1011.42 1011.15 1011.06 1011.07 1009.90 1008.09 1007.71 1007.69 1008.10 1008.54 1008.37 1007.98 1007.97 1008.00 1007.70 1007.51 1006.69 1006.57 1006.94 1007.05 1007.34 1007.81 1008.13 1008.25 1008.49 1008.45 1008.80 1008.44 1008.88 1009.48 1009.60 1009.95 1010.20 1010.61 1011.10
1013.54 1013.49 1013.49 1013.36 1013.15 1012.99 1012.72 1012.10 1011.62 1011.20 1011.25 1010.79 1010.73 1010.50 1008.65 1007.44 1007.65 1008.14 1007.97 1008.66 1008.75 1008.50 1008.17 1008.19 1008.41 1007.83 1007.05 1006.86 1006.96 1007.17 1006.88 1007.15 1007.45 1008.31 1008.80 1008.85 1007.62 1008.14 1009.18 1009.35 1009.35 1009.77 1010.16 1010.74 1011.11
1013.61 1013.61 1013.42 1013.35 1013.16 1013.09 1012.66 1011.94 1011.55 1011.23 1010.63 1010.32 1010.42 1009.74 1008.12 1007.89 1007.73 1007.49 1007.73 1007.99 1008.72 1008.77 1008.53 1008.48 1008.39 1007.68 1007.58 1006.59 1006.48 1006.27 1005.81 1006.16 1007.39 1008.10 1008.38 1008.65 1007.51 1008.18 1009.42 1009.32 1009.31 1009.85 1010.28 1010.78 1011.27
1013.43 1013.53 1013.35 1013.02 1012.86 1012.72 1012.11 1011.14 1010.57 1010.42 1009.83 1009.19 1008.97 1009.51 1007.47 1006.54 1006.82 1007.19 1007.77 1007.80 1008.34 1008.51 1008.73 1008.22 1008.02 1007.42 1006.79 1005.67 1004.25 1004.79 1005.38 1005.62 1005.96 1007.66 1008.14 1008.23 1007.83 1008.78 1009.52 1009.45 1009.54 1009.86 1010.47 1011.05 1011.43
1013.23 1013.42 1013.36 1013.00 1012.65 1012.71 1012.26 1010.83 1010.57 1010.28 1009.38 1008.17 1007.04 1006.30 1005.08 1006.06 1006.71 1006.85 1007.26 1007.62 1007.91 1008.11 1007.60 1007.56 1007.33 1005.87 1005.48 1005.40 1004.75 1004.55 1005.08 1005.15 1005.85 1007.09 1007.74 1007.54 1007.77 1008.61 1009.56 1009.90 1010.05 1010.28 1010.75 1011.42 1011.98
1013.29 1013.35 1013.28 1013.06 1012.75 1012.72 1012.63 1012.54 1014.05 1014.09 1011.54 1008.92 1007.45 1006.50 1005.88 1005.77 1005.98 1006.45 1006.73 1006.71 1007.11 1007.04 1006.99 1007.40 1005.70 1006.05 1005.90 1005.70 1005.42 1004.72 1004.80 1005.25 1006.79 1007.74 1008.00 1007.46 1007.46 1007.89 1009.39 1009.75 1010.37 1010.82 1011.29 1011.99 1012.85
1013.63 1013.31 1013.11 1013.05 1012.77 1012.82 1012.63 1013.33 1013.95 1014.03 1012.15 1008.45 1007.28 1006.18 1005.50 1005.92 1004.93 1005.64 1006.08 1005.68 1006.07 1006.50 1006.13 1005.81 1005.47 1005.93 1005.83 1005.63 1005.73 1005.26 1004.88 1005.14 1006.51 1008.00 1008.03 1007.50 1007.50 1007.69 1009.08 1010.21 1011.15 1011.78 1012.22 1012.97 1013.43
1013.63 1013.32 1013.18 1012.84 1013.05 1012.58 1012.57 1013.36 1013.37 1013.45 1011.67 1007.64 1006.58 1005.54 1005.19 1005.10 1004.56 1004.45 1005.03 1004.98 1005.60 1005.44 1006.20 1006.19 1005.71 1005.53 1005.72 1005.51 1005.82 1005.46 1005.67 1005.62 1006.98 1007.53 1007.19 1007.31 1006.16 1006.36 1007.88 1009.41 1010.60 1011.53 1012.33 1013.05 1013.91
1013.78 1013.44 1013.15 1012.89 1012.43 1012.25 1012.68 1012.74 1012.86 1012.87 1009.59 1005.48 1005.55 1004.83 1004.28 1003.84 1003.68 1004.69 1004.97 1004.82 1004.43 1004.61 1005.79 1005.30 1005.70 1005.97 1005.80 1005.23 1005.87 1005.90 1006.24 1006.73 1007.29 1007.35 1007.34 1007.47 1007.01 1005.36 1006.50 1008.14 1009.44 1010.84 1012.06 1013.26 1014.22
1013.98 1013.60 1013.22 1012.38 1012.10 1011.88 1012.45 1012.67 1012.92 1012.07 1007.64 1005.18 1004.36 1004.70 1003.87 1003.73 1003.56 1004.50 1004.94 1004.90 1004.28 1004.80 1005.66 1005.61 1006.47 1006.18 1005.69 1005.76 1005.85 1006.56 1007.05 1007.78 1008.00 1008.11 1007.75 1006.74 1006.90 1005.37 1006.58 1007.01 1008.06 1010.31 1012.10 1013.49 1014.53
1013.86 1013.30 1013.14 1012.50 1011.99 1011.82 1012.17 1012.25 1012.00 1010.77 1007.97 1005.62 1004.69 1004.54 1003.99 1002.94 1003.45 1003.89 1004.22 1004.20 1003.40 1004.14 1004.74 1005.60 1006.52 1006.65 1006.54 1006.61 1006.62 1006.26 1006.78 1007.84 1008.31 1008.31 1007.41 1007.38 1006.93 1005.89 1006.78 1007.61 1007.93 1010.10 1012.19 1013.67 1014.73
1013.43 1012.86 1012.25 1011.93 1011.72 1011.93 1012.15 1012.29 1011.04 1008.47 1007.97 1007.30 1006.50 1004.45 1003.59 1002.90 1002.83 1003.45 1003.71 1003.56 1003.41 1002.95 1003.72 1004.58 1006.11 1006.40 1006.32 1005.75 1006.08 1006.18 1005.59 1005.90 1006.30 1006.69 1007.22 1008.24 1006.96 1006.45 1007.86 1009.01 1009.42 1010.90 1012.72 1014.16 1015.05
1012.92 1011.92 1011.90 1011.73 1011.76 1012.18 1012.20 1011.13 1008.91 1007.88 1007.71 1007.05 1007.04 1004.81 1003.79 1002.68 1002.23 1002.71 1002.61 1002.28 1002.28 1002.19 1001.87 1003.23 1004.76 1006.13 1006.43 1006.45 1006.02 1006.68 1005.57 1005.75 1006.29 1006.92 1006.65 1006.35 1006.72 1008.00 1008.96 1009.83 1010.67 1011.86 1013.14 1014.33 1015.41
1012.83 1011.90 1011.52 1011.81 1011.99 1012.45 1012.22 1010.16 1009.54 1008.76 1008.76 1008.51 1008.01 1006.04 1003.92 1002.92 1002.37 1001.63 1001.45 1001.39 1001.58 1001.58 1001.32 1001.92 1004.06 1005.98 1006.90 1007.00 1006.47 1005.85 1005.77 1006.48 1006.04 1006.15 1005.83 1005.46 1006.13 1006.61 1008.48 1009.53 1010.81 1012.06 1013.25 1014.49 1015.66
1012.75 1011.98 1011.93 1011.97 1012.30 1012.57 1011.68 1010.01 1008.50 1008.10 1008.17 1008.35 1007.77 1007.12 1004.97 1002.97 1002.66 1001.95 1000.12 1000.04 1000.71 1001.00 1001.53 1001.76 1002.35 1005.91 1006.72 1005.82 1005.27 1006.22 1005.14 1005.12 1005.02 1004.74 1004.63 1004.99 1005.06 1005.47 1006.39 1008.17 1009.97 1011.55 1012.96 1014.47 1015.82
1013.21 1012.49 1012.33 1012.23 1012.47 1012.09 1011.15 1010.45 1010.03 1008.41 1008.23 1008.23 1008.05 1007.03 1006.22 1004.90 1002.43 1001.46 999.93 999.33 999.79 1000.60 1000.87 1001.49 1002.01 1004.02 1004.44 1005.71 1005.76 1004.82 1004.13 1004.26 1004.03 1004.01 1004.57 1004.74 1005.01 1006.21 1006.93 1007.90 1009.79 1011.61 1013.11 1014.65 1015.76
1013.57 1012.87 1012.54 1012.58 1012.47 1012.00 1010.99 1010.14 1009.39 1008.75 1008.02 1007.79 1007.17 1006.42 1005.82 1004.83 1002.74 1000.99 1000.01 999.29 999.48 999.97 1000.49 1000.92 1001.53 1002.92 1004.76 1005.66 1005.52 1004.75 1003.80 1003.66 1003.61 1003.52 1003.61 1004.42 1004.80 1006.71 1007.77 1008.52 1010.28 1011.94 1013.51 1014.77 1015.83
1014.21 1013.57 1012.55 1012.88 1013.02 1012.61 1011.53 1010.33 1008.72 1007.79 1007.23 1006.81 1006.25 1006.00 1005.81 1004.71 1002.98 1000.55 1000.19 999.91 999.42 999.83 1000.36 1000.78 1000.74 1001.10 1001.33 1001.38 1003.09 1004.38 1003.70 1003.91 1003.64 1003.48 1003.05 1003.33 1004.22 1006.24 1007.65 1008.68 1010.26 1011.98 1013.52 1014.64 1015.82
1014.81 1014.52 1014.45 1013.45 1013.04 1012.90 1012.16 1010.57 1009.50 1008.80 1007.65 1006.60 1005.89 1005.87 1005.34 1004.06 1002.23 1000.50 1000.65 1000.74 1001.07 1000.28 1001.10 1001.11 1000.83 1001.18 1000.98 1001.41 1001.83 1002.17 1002.63 1003.05 1003.00 1001.87 1002.55 1002.04 1003.30 1004.12 1006.35 1008.17 1009.84 1011.67 1013.39 1014.51 1015.70
1015.28 1015.22 1014.83 1014.12 1013.48 1012.80 1011.85 1010.88 1010.23 1009.24 1008.64 1006.80 1006.05 1006.00 1004.89 1004.21 1002.65 1001.09 1000.31 1000.79 1000.85 1001.61 1001.56 1001.66 1001.85 1001.88 1001.60 1001.75 1002.12 1002.08 1002.37 1002.88 1002.64 1001.95 1002.40 1002.21 1002.85 1003.97 1005.32 1007.93 1009.71 1011.12 1012.61 1013.94 1015.28
1015.51 1015.29 1015.07 1013.75 1013.04 1012.50 1011.76 1011.36 1010.67 1010.07 1007.51 1006.82 1006.07 1005.49 1004.20 1002.71 1002.41 1001.73 1000.76 1000.99 1001.03 1001.54 1002.22 1002.49 1002.85 1003.30 1002.74 1002.61 1003.11 1002.99 1001.88 1001.65 1001.93 1001.95 1001.76 1001.91 1002.98 1004.20 1006.07 1007.63 1008.65 1010.19 1011.89 1013.38 1015.00
Wind_Speed
15 14 16 16 14 17 19 15 11 9 9 7 6 4 3 6 3 10 16 7 9 12 9 11 11 10 9 7 4 3 7 10 12 9 10 12 10 5 4 7 4 6 6 8 19
14 16 15 16 14 11 14 19 17 11 9 8 7 5 2 3 9 18 8 7 8 16 13 18 16 14 8 7 6 8 9 14 8 7 8 14 11 11 8 9 8 8 8 17 18
13 14 15 15 12 10 13 13 19 20 10 8 8 5 1 6 5 11 24 18 15 17 14 15 13 14 12 8 9 7 11 8 3 2 2 13 10 10 8 11 10 13 14 18 15
13 12 14 15 14 15 16 16 16 21 13 8 6 5 4 5 8 6 9 21 19 18 13 14 16 15 11 12 14 8 13 5 5 5 6 13 10 8 10 7 7 5 19 18 18
12 13 12 14 14 16 14 17 12 19 18 8 5 5 6 8 10 8 5 17 19 19 18 17 18 17 15 14 11 13 7 6 4 7 6 8 11 7 10 5 4 4 14 17 17
11 11 13 13 12 14 17 15 11 19 23 10 6 4 11 16 3 2 4 17 17 20 18 17 11 14 13 12 15 13 6 8 8 9 6 9 7 4 7 5 6 7 12 15 17
11 9 10 11 11 16 16 15 14 15 18 14 8 7 14 15 3 6 8 12 12 17 15 16 9 12 7 9 5 6 10 7 8 10 6 6 8 11 8 5 7 11 11 12 14
9 9 10 12 11 13 16 17 18 18 18 16 8 9 10 5 8 7 10 7 9 8 7 10 7 14 10 7 10 10 10 9 14 11 7 8 13 14 5 8 10 12 11 10 12
8 9 10 9 10 10 15 17 23 19 19 14 9 11 11 7 9 12 12 10 11 9 4 7 7 9 5 14 9 15 11 18 9 13 7 13 9 12 5 8 10 10 10 10 12
8 8 9 10 7 9 14 15 21 17 11 12 10 9 12 10 9 12 10 11 11 11 7 10 9 10 13 15 16 17 17 19 14 14 11 14 10 10 5 8 9 9 9 9 10
7 8 9 11 9 7 10 5 6 5 5 7 12 8 2 10 10 14 13 15 11 15 14 17 14 20 23 19 15 14 20 14 16 9 13 16 16 11 9 7 8 8 8 8 9
7 9 10 11 12 3 4 5 2 5 11 12 20 24 5 14 8 16 18 13 15 18 20 12 21 19 15 17 12 12 17 17 8 7 9 14 16 12 9 9 6 6 7 7 7
9 11 12 11 10 3 1 6 4 10 6 8 18 16 13 14 14 21 22 14 18 21 24 18 10 18 18 18 16 13 17 15 7 9 7 5 13 15 11 8 7 6 4 5 6
12 10 9 13 5 1 2 6 5 6 6 9 12 9 22 13 10 18 22 17 12 22 19 16 16 18 16 20 18 17 6 5 11 13 6 12 7 22 18 15 13 10 9 7 6
11 11 9 7 8 4 4 4 2 2 7 15 12 9 18 18 13 16 20 15 19 17 17 11 9 17 19 23 20 9 11 9 11 12 1 8 5 3 15 15 16 14 11 8 6
13 12 12 5 5 6 3 2 3 5 6 6 13 12 20 20 13 15 19 7 8 13 17 9 3 11 16 16 18 17 15 10 5 3 5 12 11 11 10 15 17 16 12 10 8
15 16 12 9 5 3 3 3 3 6 13 7 8 19 24 20 18 16 24 22 15 18 18 12 9 3 5 11 10 15 18 5 5 4 8 3 10 10 9 5 4 17 14 11 9
21 18 6 8 6 5 3 3 7 8 7 7 8 23 26 22 22 19 23 25 24 20 15 14 10 14 11 14 11 19 18 6 9 9 8 3 9 5 7 4 4 14 13 11 10
21 5 3 1 3 5 3 5 5 5 2 4 13 13 23 23 15 20 22 25 26 24 13 17 13 10 13 3 18 16 21 3 3 3 7 8 7 6 6 7 12 15 15 14 12
9 6 1 3 3 3 3 6 6 3 4 3 2 13 20 24 18 23 25 26 27 25 24 16 14 13 5 5 5 9 12 8 5 9 8 8 10 8 12 17 17 18 16 15 13
6 5 4 1 2 2 5 7 9 7 7 7 8 9 16 21 22 25 23 19 29 28 21 13 15 9 9 14 17 6 12 8 5 8 7 8 7 3 14 19 20 19 18 17 15
5 5 3 3 3 2 3 5 11 13 7 10 7 10 10 16 24 24 28 23 28 24 27 18 11 8 18 4 4 18 16 20 9 9 4 5 10 3 4 14 17 17 16 16 16
5 3 2 1 3 6 14 11 17 14 17 6 9 12 3 6 15 24 24 23 27 25 22 16 10 8 10 4 6 10 18 15 16 6 16 10 7 3 2 11 15 18 17 17 17
3 4 1 1 1 6 12 15 14 9 16 18 12 12 11 11 19 24 24 13 23 24 19 17 11 17 14 15 11 12 18 14 17 11 12 15 14 7 9 14 16 18 19 18 17
3 2 1 4 8 11 15 11 17 10 9 11 7 19 12 7 16 15 21 6 6 19 16 13 19 19 20 11 18 18 22 20 20 24 17 15 16 7 15 17 19 18 18 19 19
4 3 1 6 7 8 11 3 14 9 3 10 10 12 12 12 7 13 19 13 11 10 14 13 4 12 12 13 10 13 19 20 23 24 21 16 17 2 13 15 19 20 21 20 19
3 4 3 5 6 8 5 7 18 21 16 21 22 19 15 18 16 11 4 4 4 12 15 8 7 4 15 7 6 1 18 24 21 22 21 21 15 11 12 16 21 23 22 21 20
Wind_Direction
314 314 312 312 329 330 332 318 284 282 285 292 297 311 347 308 251 204 224 238 198 163 224 167 189 179 183 187 228 272 237 213 201 211 141 155 163 180 58 130 177 151 44 116 142
311 314 313 316 317 324 336 355 332 283 281 289 292 305 348 107 251 248 210 200 194 163 187 175 184 173 187 188 194 224 230 224 214 201 160 175 186 159 173 160 164 142 115 126 150
299 311 318 318 334 351 341 356 345 334 275 280 290 298 275 144 284 254 207 200 189 183 197 196 182 188 191 173 187 198 238 233 181 194 202 173 194 163 200 186 177 179 150 146 164
299 307 318 317 308 315 320 330 343 330 281 267 279 285 196 185 217 29 326 182 176 188 203 202 187 194 193 195 188 214 232 286 143 147 175 173 175 190 206 81 36 125 152 158 172
294 307 314 329 319 315 315 317 328 327 318 250 255 260 221 219 239 348 311 181 167 182 192 190 191 201 196 199 176 216 186 197 172 155 174 144 180 184 200 129 121 146 157 170 176
286 295 319 324 324 318 315 316 325 337 326 245 233 241 242 241 34 82 157 176 171 182 197 200 204 208 215 202 197 198 181 178 172 158 154 180 163 188 157 157 190 165 177 180 179
292 304 310 330 337 333 315 313 319 324 310 258 213 226 249 234 54 140 153 190 191 189 194 207 248 201 177 171 147 158 164 170 191 171 153 205 195 212 134 189 180 192 180 185 188
310 308 315 319 319 340 336 318 313 304 300 274 212 221 246 243 235 203 165 198 210 207 222 198 259 225 235 122 157 179 205 183 178 176 152 208 222 190 166 192 185 185 178 185 189
326 323 327 331 309 330 335 342 302 287 290 247 205 214 237 129 191 203 179 181 190 198 181 172 214 208 189 177 167 191 195 201 151 195 146 199 225 139 182 201 186 179 183 187 177
342 335 334 328 313 324 318 305 287 285 264 200 228 182 226 209 171 170 182 179 174 170 157 182 197 204 206 200 195 186 223 197 187 188 198 197 242 144 158 190 183 184 168 180 180
342 333 333 327 317 305 312 343 351 190 202 282 185 223 293 169 149 179 169 158 199 196 192 192 197 209 203 210 222 199 204 192 210 156 191 207 219 182 172 178 187 179 177 168 173
346 333 331 332 321 281 317 64 47 337 297 270 268 212 178 180 155 175 170 164 184 199 199 183 215 210 215 207 220 222 203 209 74 160 218 209 221 178 184 198 196 188 184 172 175
341 330 329 328 329 239 319 80 119 5 266 220 230 234 187 199 202 179 185 182 186 200 204 204 201 209 213 200 205 211 208 195 193 168 213 195 231 194 199 190 184 194 191 188 203
347 344 338 322 267 43 290 143 161 128 265 181 187 248 209 206 213 176 195 169 185 202 200 225 210 191 199 200 200 205 213 234 144 172 206 200 242 200 190 200 200 189 193 175 175
349 340 338 326 313 274 117 186 257 137 241 167 158 237 184 192 114 176 196 202 194 182 188 191 160 189 203 199 195 211 148 159 183 206 201 194 248 238 183 202 201 191 180 170 157
346 331 320 281 289 277 210 269 254 248 235 141 143 186 178 199 191 139 184 204 202 187 198 192 331 196 216 201 192 136 121 109 107 171 230 216 213 232 182 216 202 177 170 160 150
330 315 305 288 263 5 274 272 246 247 338 141 174 176 195 182 184 176 181 194 170 175 186 183 174 126 171 133 176 168 161 146 191 208 235 12 219 251 92 65 217 168 165 155 145
328 313 306 285 266 228 239 226 237 223 235 330 305 189 192 183 181 187 186 190 208 205 172 181 192 178 182 182 176 196 182 159 188 195 204 153 223 211 98 104 145 151 153 148 144
320 311 304 296 241 204 217 223 269 254 71 254 327 202 205 202 181 184 196 199 198 202 181 186 193 128 177 168 164 198 213 234 118 9 227 191 241 158 148 150 149 157 160 160 150
321 322 271 5 196 166 232 254 244 340 30 335 246 295 195 195 206 188 191 201 200 206 223 185 185 193 147 179 214 218 165 190 217 166 208 193 227 227 197 190 178 173 174 161 151
319 315 64 79 133 188 235 252 304 312 249 211 216 260 279 187 205 197 197 188 202 198 215 226 207 159 157 211 177 163 186 218 222 216 209 226 222 198 203 186 184 177 172 162 158
318 317 36 355 287 233 269 286 323 279 287 232 255 237 279 285 201 192 216 202 187 190 197 210 212 170 198 110 325 214 197 197 201 184 240 284 241 30 19 174 172 168 162 163 161
316 294 65 299 305 330 317 288 296 272 262 228 232 222 207 291 221 216 212 202 182 183 187 174 196 142 151 228 197 220 214 225 228 222 211 213 206 107 132 150 167 165 164 166 160
334 313 256 216 303 298 317 310 315 301 273 258 259 263 247 258 277 197 207 222 189 189 203 164 198 196 194 209 160 203 212 209 211 215 213 218 223 174 178 166 167 167 170 167 162
17 356 304 302 313 305 292 294 296 295 274 292 236 235 239 291 227 195 201 114 297 206 202 198 221 208 220 213 185 197 196 194 207 216 206 215 224 179 186 181 174 168 170 167 166
349 330 301 279 279 274 296 276 297 297 303 291 265 271 233 224 269 195 187 178 184 213 212 210 258 234 230 211 191 196 203 197 210 221 230 237 232 297 156 158 172 173 174 173 171
340 308 258 276 294 296 328 314 303 300 285 261 269 273 250 245 242 322 155 177 164 163 192 186 141 135 226 208 113 246 206 199 213 223 216 226 225 140 152 175 182 175 178 174 170